Location: Henry Coe State Park
(37.1875°N, 121.5503°W)
Time: 17:37:39
(UTC-08:00)

Daily predictions for brighter satellites

Satellite Brightness Start Highest point End
(mag) Time Altitude Azimuth Time Altitude Azimuth Time Altitude Azimuth
ERS-2 3.6 17:17:51 10° ESE 17:20:20 17° ENE 17:22:49 10° NNE
SL-27 R/B 3.8 17:18:02 10° NNE 17:20:23 18° ENE 17:22:43 10° ESE
Cosmos 1814 Rocket 4.1 17:19:43 10° NNW 17:25:03 63° ENE 17:30:20 10° SSE
Lacrosse 5 4.3 17:33:29 10° NNW 17:34:09 10° NNW 17:34:49 10° N
Tsikada Rocket 4.2 17:28:01 10° N 17:34:11 79° W 17:40:20 10° S
BREEZE-M R/B 3.4 17:32:35 10° NNW 17:35:01 27° NE 17:38:40 10° E
Cosmos 1703 Rocket 3.9 17:31:12 10° SSE 17:35:26 44° E 17:39:41 10° NNE
Cosmos 540 Rocket 4.4 17:31:45 10° N 17:36:05 26° ENE 17:40:24 10° ESE
Ariane Rocket 3.0 17:31:35 10° SSE 17:36:40 87° ENE 17:41:46 10° NNW
Cosmos 2346 Rocket 4.4 17:31:15 10° N 17:37:26 78° E 17:43:38 10° S
CZ-2C R/B 3.7 17:34:28 10° NNE 17:38:56 66° ESE 17:43:27 10° S
Cosmos 304 Rocket 3.7 17:34:29 10° NNW 17:39:18 74° ENE 17:44:04 10° SSE
Cosmos 841 Rocket 3.5 17:40:24 10° NNW 17:45:39 64° ENE 17:50:51 10° SSE
Cosmos 1633 3.1 17:44:16 10° N 17:47:41 36° E 17:51:06 10° SSE
USA 234 3.5 17:42:56 11° NE 17:49:11 54° SE 17:55:32 10° SSW
Meteor 1-10 Rocket 4.5 17:45:48 10° SSE 17:51:09 47° E 17:56:39 10° NNE
Okean 2 Rocket 4.0 17:48:02 10° NNE 17:51:52 26° ENE 17:55:40 10° SE
Cosmos 1486 Rocket 4.3 17:48:31 10° SSW 17:53:41 71° WNW 17:58:56 10° NNE
FENGYUN 3A 4.2 17:52:34 10° SE 17:57:24 34° ENE 18:02:14 10° N
Cosmos 44 4.3 17:55:50 10° N 17:59:44 25° NE 18:01:26 21° E
Cosmos 1908 Rocket 3.6 17:58:38 10° N 18:02:59 80° W 18:07:18 10° S
BREEZE-M DEB (TANK) 3.3 17:56:05 10° WNW 18:03:58 63° SW 18:07:10 10° SE
SKYMED 2 3.5 18:00:04 10° NNE 18:04:24 67° E 18:08:42 10° S
Cosmos 1464 Rocket 3.9 18:00:51 10° S 18:06:52 63° E 18:12:55 10° NNE
ERBS 4.1 18:04:58 10° WNW 18:08:06 34° SW 18:11:13 10° SSE
ALOS 2.5 18:06:01 10° SE 18:10:26 44° ENE 18:14:52 10° N
Cosmos 1833 Rocket 2.8 18:05:23 10° NNW 18:10:53 53° ENE 18:16:22 10° SE
Cosmos 1354 Rocket 3.9 18:05:46 10° SSW 18:11:03 83° ESE 18:16:21 10° NNE
Cosmos 2297 3.6 18:06:48 10° SSW 18:12:29 80° ESE 18:18:12 10° NNE
SPOT 3 Rocket 3.6 18:08:57 10° SSE 18:14:04 58° ENE 18:19:10 10° N
Cosmos 2278 Rocket 3.6 18:11:56 10° SW 18:17:10 38° WNW 18:22:27 10° N
CZ-4 R/B 2.8 18:15:26 10° S 18:19:05 39° W 18:22:43 10° NNW
Sich 1 Rocket 4.1 18:16:03 10° NNW 18:20:26 62° W 18:24:50 10° S
Cosmos 1441 Rocket 3.3 18:19:43 10° S 18:23:34 52° E 18:24:32 41° NE
Cosmos 1606 3.6 18:19:56 10° SSW 18:23:36 48° W 18:27:16 10° N
Meteor 1-11 Rocket 4.0 18:18:11 10° N 18:23:46 44° ENE 18:29:11 10° SSE
Okean 1-7 3.4 18:23:27 10° SSW 18:27:47 64° W 18:32:10 10° N
EO 1 Del DPAF 4.1 18:30:20 10° N 18:34:02 50° WNW 18:37:44 10° SSW
USA 229 DEB 4.2 18:28:07 10° S 18:34:06 35° ESE 18:35:11 34° E
USA 229 4.2 18:28:15 10° S 18:34:13 35° ESE 18:35:14 33° E
NOAA 12 4.0 18:29:59 10° SSE 18:35:18 80° ENE 18:40:38 10° N
Thor Agena Rocket 3.5 18:48:43 58° E 18:48:59 59° ESE 18:54:03 10° S
Cosmos 1602 3.9 18:47:28 10° NNW 18:51:17 70° W 18:55:07 10° S
COSMO-SKYMED 1 4.2 18:48:27 10° N 18:52:21 33° WNW 18:56:14 10° SW
CZ-4C R/B 3.1 18:46:04 10° NNW 18:53:05 50° NE 18:54:35 45° E
ERS-2 4.4 18:50:41 10° SSW 18:53:47 26° W 18:56:54 10° NW
Cosmos 405 Rocket 3.9 18:53:17 10° SSW 18:56:53 40° WNW 18:58:17 28° NNW
Cosmos 2082 Rocket 2.6 18:53:40 10° NNW 18:59:16 61° WSW 19:04:47 10° S
MOS 1-B Rocket 4.4 19:00:46 10° SSE 19:07:48 69° ENE 19:16:06 10° N
OAO 3 Rocket 3.8 19:05:49 10° WSW 19:09:56 49° SSW 19:09:56 49° SSW
Cosmos 44 Rocket 3.6 19:08:34 10° NNW 19:12:42 62° NW 19:12:42 62° NW
FengYun 1-2 T 4.1 19:08:16 10° SSE 19:13:46 88° WSW 19:19:22 10° NNW
Cosmos 968 Rocket 3.9 19:12:48 10° SSW 19:17:53 59° WNW 19:18:34 54° NW
Nadezhda 4 Rocket 4.2 19:15:57 10° NNW 19:22:02 67° W 19:28:05 10° S
Timation 2 Rocket 4.1 19:23:57 10° NNW 19:30:08 76° NNW 19:30:08 76° NNW
USA 234 4.1 19:30:18 36° N 19:32:02 43° NW 19:38:07 10° WSW
Cosmos 2369 Rocket 4.2 19:47:37 10° SSW 19:49:02 18° SSW 19:49:02 18° SSW
CZ-4C R/B 4.3 20:34:53 10° NW 20:39:51 34° W 20:39:51 34° W
